Wind_Speed
60 61 59 58 57 56 56 58 58 58 55 54 52 48 47 46 43 40 36 31 28 27 25 24 24 26 31 35 38 39 42 44 43 44 44 42 40 37 35 34 34 34 34 33 32 32 30 24 21 22 22 23 24 25 26 23 22 23 21 20 17 10 7 8 10 13 13 10 10 11 13 15 15 15 14 14 14 14 15 15 15 15 14 12 12 13 13 13
57 61 63 59 56 57 57 57 56 54 53 54 54 50 48 47 44 41 36 32 29 27 25 24 24 26 29 33 36 39 42 43 42 44 43 42 41 38 35 34 34 34 34 31 29 32 30 23 22 24 23 24 25 25 25 23 22 24 21 19 16 11 9 10 11 14 14 13 12 12 13 14 15 14 14 15 14 13 14 15 15 15 15 14 13 14 14 14
58 58 61 61 57 59 58 56 55 51 50 53 54 51 49 48 45 41 37 32 29 28 26 24 24 26 28 30 33 37 38 39 41 43 41 42 43 39 36 34 33 33 33 32 28 31 31 24 24 27 24 24 25 25 25 24 23 23 22 19 14 13 14 15 15 14 14 14 13 12 13 15 16 15 14 14 14 14 14 15 15 15 15 14 14 14 14 14
66 56 52 56 55 57 57 55 53 48 46 51 54 52 50 49 45 42 38 33 30 28 26 24 25 26 27 29 32 35 35 37 42 41 38 42 44 41 38 34 32 31 32 32 29 31 32 25 26 28 25 22 24 25 25 25 23 23 23 17 12 12 16 17 16 15 14 14 14 13 14 17 16 15 15 15 15 15 14 15 15 15 15 14 14 15 14 14
68 61 50 51 53 55 55 54 52 47 46 50 53 52 51 50 46 43 38 34 31 29 27 25 25 26 27 29 31 34 35 35 38 36 35 39 40 40 39 36 36 33 32 32 31 34 30 25 28 29 28 24 22 25 26 26 23 23 24 17 11 12 15 17 16 15 15 14 13 13 15 17 15 14 16 15 14 15 15 16 17 16 16 15 15 15 15 15
64 63 54 50 52 54 55 54 51 46 47 51 53 52 52 50 47 43 39 35 32 30 28 27 26 26 27 29 31 34 35 30 28 29 33 35 35 37 36 36 38 34 32 32 33 37 30 25 31 29 28 25 21 24 25 25 23 22 23 21 15 11 12 14 15 15 15 13 12 13 15 16 15 15 16 15 16 16 17 17 17 16 15 15 16 16 15 15
62 62 54 50 52 52 53 53 50 46 49 51 52 53 52 50 47 44 40 36 34 31 30 28 27 26 26 29 32 33 36 31 20 19 26 32 33 34 35 35 36 33 33 33 35 38 29 24 32 28 25 23 18 22 24 24 26 22 20 24 20 11 9 11 13 15 14 13 12 12 13 14 15 16 16 16 19 20 18 18 17 16 15 15 16 16 16 16
62 60 54 51 52 51 51 52 48 46 49 51 52 53 52 51 48 45 41 38 35 33 31 29 28 27 27 29 33 34 33 29 22 18 19 27 32 33 34 36 36 34 34 35 37 39 30 24 30 26 22 19 12 17 22 23 26 24 18 21 24 17 13 12 13 14 14 12 11 11 12 13 15 15 15 17 21 20 17 17 18 17 15 16 16 16 17 17
59 58 54 52 52 50 50 51 48 45 48 51 52 53 53 51 49 46 43 39 37 35 32 30 29 29 29 30 33 33 25 18 18 19 16 20 29 34 34 36 36 35 37 36 38 41 33 27 28 23 21 19 11 13 20 22 24 26 20 17 22 21 17 15 14 14 14 12 11 11 12 11 12 13 14 18 20 18 16 16 16 17 15 16 16 16 16 17
56 56 54 53 53 50 49 49 47 47 49 50 52 53 52 52 49 46 44 41 39 36 33 31 31 30 32 33 34 31 21 12 12 13 13 15 25 33 35 36 36 35 38 36 39 43 35 25 24 23 21 19 15 14 19 22 20 24 25 18 18 20 19 17 16 15 15 13 12 12 12 10 11 13 13 17 18 15 15 15 15 15 15 16 16 16 16 17
56 53 53 55 53 50 49 47 47 48 49 50 51 52 52 51 49 47 45 43 41 38 35 32 31 32 32 33 32 28 20 13 12 10 10 12 18 27 32 37 36 35 38 36 40 43 32 21 23 24 23 18 16 16 20 23 18 18 25 22 17 18 19 19 17 16 16 14 14 13 12 11 13 14 14 16 15 13 14 14 14 14 15 16 16 16 17 17
55 52 53 54 51 50 49 46 48 50 49 49 51 52 52 51 50 48 46 44 42 39 37 34 32 31 29 27 26 24 19 14 14 11 10 10 13 18 24 34 36 34 35 37 41 41 31 20 23 24 22 19 16 15 18 25 22 17 20 23 20 18 19 20 18 17 17 16 15 14 12 14 16 14 14 14 13 13 14 14 15 15 15 16 16 16 16 17
53 52 53 52 49 50 49 47 49 49 47 49 51 52 52 50 50 49 48 46 43 41 38 35 33 31 28 24 23 23 20 17 16 14 12 11 12 13 17 27 33 34 34 36 41 40 31 20 22 23 22 20 18 15 15 23 28 21 16 20 22 21 21 21 19 18 17 16 15 14 14 15 13 13 13 13 13 13 14 15 15 15 16 17 17 16 16 16
52 52 51 49 48 48 47 48 50 48 47 49 50 52 51 50 51 50 49 47 44 42 39 36 34 32 29 25 24 25 23 19 18 16 14 13 13 13 16 23 29 34 34 36 41 40 29 19 22 24 22 21 19 16 16 19 28 25 16 17 21 22 22 22 20 19 18 17 16 15 16 12 6 10 13 13 14 14 14 15 15 16 16 17 16 16 16 15
52 51 48 46 45 44 45 49 50 47 47 49 50 51 50 51 52 51 50 48 45 42 39 37 35 33 30 27 26 26 25 22 19 16 15 14 15 16 17 18 19 26 31 37 42 37 23 17 22 24 23 22 18 16 18 18 24 27 20 18 20 20 20 21 22 21 20 19 18 16 15 11 8 10 10 11 15 16 14 14 15 17 17 17 16 16 16 15
51 47 44 42 41 41 45 48 48 47 48 49 50 51 50 51 52 52 51 49 46 43 41 39 37 34 31 30 29 27 26 24 20 16 16 16 17 17 16 16 15 21 31 37 37 29 17 18 22 24 23 24 21 17 18 18 22 27 25 20 20 20 18 20 22 23 23 21 21 20 15 11 11 13 12 12 15 16 15 15 16 17 17 17 17 17 17 16
47 44 41 39 39 41 44 47 47 48 49 50 52 52 50 50 50 51 51 49 47 44 42 39 36 34 31 30 32 31 28 24 21 18 18 19 18 18 17 17 18 21 28 32 27 20 19 21 23 25 24 25 24 19 17 19 22 26 26 20 18 21 21 20 22 24 25 24 22 22 20 14 11 12 13 14 15 16 17 16 17 17 18 18 18 18 18 17
44 41 39 38 40 41 44 46 47 49 51 51 52 51 49 48 49 51 51 51 48 44 41 38 36 35 33 35 36 34 30 24 21 20 20 20 20 20 17 18 22 23 24 23 20 21 22 22 23 24 24 26 26 24 22 22 22 22 24 21 16 19 22 19 21 23 24 25 24 24 24 20 16 15 15 15 14 15 16 18 19 18 18 19 20 20 19 18
42 40 38 40 41 42 44 47 49 51 52 52 52 50 46 45 47 49 51 51 50 48 46 45 45 42 38 39 39 34 29 24 22 22 23 21 20 21 17 18 23 22 21 21 22 24 24 23 25 26 27 30 30 29 25 19 16 18 23 23 17 18 22 22 22 23 24 25 26 27 26 23 21 21 20 19 18 16 16 19 20 19 19 20 20 20 20 19
40 39 40 41 41 43 46 48 50 52 52 52 51 50 48 48 49 50 51 52 51 50 50 50 50 46 37 33 37 35 27 25 26 25 24 20 20 22 19 19 22 20 21 22 22 24 24 25 29 31 31 29 29 27 23 17 13 16 22 24 22 20 23 27 26 24 23 23 24 25 26 25 24 23 23 23 23 22 20 19 20 20 20 21 21 20 20 19
40 39 41 41 41 44 48 49 50 50 49 49 49 50 52 53 55 56 57 56 52 50 50 48 46 46 39 28 28 31 28 27 29 27 24 22 21 23 22 22 23 22 22 21 20 21 24 28 32 32 28 22 23 24 20 19 18 15 19 23 25 23 22 25 27 25 23 21 21 21 23 25 25 23 23 25 27 24 21 20 21 22 22 22 22 20 19 20
40 40 41 41 43 47 49 49 49 47 46 47 47 48 49 50 52 53 56 57 54 51 50 48 44 46 44 32 23 25 29 31 32 30 28 27 26 26 25 25 25 23 23 21 21 23 26 30 30 29 26 18 17 23 22 21 20 14 15 19 24 26 24 22 23 24 25 23 22 22 24 26 26 26 25 25 28 26 22 22 22 23 23 23 23 21 20 21
41 42 42 43 46 48 48 49 47 45 46 48 48 47 45 46 47 46 49 53 53 48 42 43 46 45 43 36 26 23 29 34 34 33 31 30 29 28 27 27 25 22 23 24 24 26 28 29 27 25 25 20 17 22 24 23 21 16 14 16 20 24 22 20 20 20 22 23 24 25 27 29 28 28 29 26 27 27 24 23 23 24 24 23 23 22 22 23
42 43 43 45 47 48 49 49 47 46 47 47 47 47 45 46 45 42 46 50 50 45 36 34 41 42 40 36 29 23 29 35 34 33 33 30 29 28 27 27 25 22 24 25 23 24 24 23 24 23 24 23 19 20 24 25 24 20 16 14 16 20 19 19 19 17 18 21 23 25 25 29 31 29 29 27 26 27 26 24 24 24 25 24 23 24 23 23
44 45 46 47 48 49 49 49 49 48 48 47 47 47 45 46 43 39 45 45 40 43 41 36 37 38 38 35 29 26 29 36 36 34 33 30 29 28 26 26 26 25 25 26 22 21 21 19 20 21 22 22 21 21 24 26 26 22 18 16 13 15 17 19 17 14 15 19 22 21 15 19 27 26 27 27 25 27 26 26 26 24 24 25 25 25 24 24
45 47 48 49 50 51 52 51 51 49 48 48 47 46 46 46 41 37 41 35 31 39 42 39 39 38 38 33 29 28 30 37 39 36 34 31 28 27 27 27 28 26 25 24 22 21 21 20 19 20 20 20 23 25 25 25 24 20 17 18 15 12 13 17 19 15 12 13 16 18 15 13 16 13 14 19 22 25 26 26 26 25 25 26 26 26 25 25
45 48 49 51 53 54 55 54 52 51 50 49 47 46 46 44 39 38 33 18 18 36 40 39 38 37 39 34 29 31 32 37 42 39 37 34 30 28 27 28 28 26 25 23 23 23 23 23 20 20 21 21 24 27 27 25 24 19 14 14 17 16 14 14 17 17 12 10 9 14 17 16 17 14 9 11 15 17 22 25 25 26 26 27 27 27 27 26
46 49 51 53 54 54 54 53 53 52 49 48 47 46 46 42 39 37 24 8 10 30 38 41 38 35 40 35 27 31 35 37 41 41 39 35 33 31 28 28 26 25 25 26 26 23 23 25 21 20 22 23 25 25 25 24 24 22 15 11 15 18 17 14 13 15 14 11 9 13 15 11 15 20 16 14 16 17 19 21 22 25 27 28 27 27 27 27
48 51 53 53 53 53 52 50 50 49 47 48 46 44 44 40 39 32 13 4 13 26 34 40 39 36 41 37 27 31 34 34 38 41 40 38 35 34 31 28 26 24 26 28 27 22 22 25 22 22 24 24 24 23 24 24 23 24 17 10 12 15 18 16 12 13 12 10 11 15 17 10 10 17 19 19 22 23 22 21 21 23 24 27 27 27 27 27
49 53 54 55 55 54 53 50 46 45 46 45 42 43 42 40 39 24 5 9 20 24 31 39 40 38 43 42 32 31 34 33 37 39 39 39 37 35 33 30 27 27 27 28 27 25 24 24 25 27 26 25 24 22 23 24 22 24 21 13 11 12 15 15 13 13 8 7 13 15 17 14 7 10 15 19 22 22 21 21 23 23 22 24 26 26 27 27
51 54 55 56 56 54 53 49 46 46 46 44 41 43 43 40 36 17 3 16 23 22 32 40 40 40 44 46 36 33 34 31 34 38 40 41 39 37 34 31 30 29 29 31 29 27 24 23 26 29 27 26 26 24 23 24 23 23 22 18 13 9 9 10 11 12 5 4 10 15 17 17 11 8 8 13 18 18 19 21 22 21 21 22 24 24 25 25
51 54 56 56 55 53 50 46 47 47 45 46 44 47 46 35 25 14 10 19 20 24 37 42 44 43 45 45 36 35 36 30 32 36 40 43 41 41 38 33 35 31 27 31 29 27 25 23 24 25 27 28 27 25 23 24 24 22 22 21 15 7 5 6 6 7 6 4 7 13 16 16 19 19 15 14 14 13 16 19 20 20 21 21 22 22 22 22
49 53 55 55 54 52 48 45 46 46 47 48 46 49 45 25 19 25 24 21 18 27 38 42 46 45 43 41 34 36 37 31 34 35 38 42 40 42 39 35 37 32 26 27 26 24 22 21 24 23 24 27 27 26 24 24 25 24 23 23 17 7 3 4 3 2 5 5 7 12 11 11 17 21 21 20 18 14 14 16 15 17 18 20 21 21 21 21
47 51 53 55 53 49 47 46 46 48 50 51 49 48 35 18 25 35 30 23 17 22 35 42 44 43 42 40 34 36 35 29 33 36 37 42 41 42 41 37 37 35 31 28 26 26 19 16 24 25 22 23 26 27 25 24 24 24 23 23 21 14 5 4 5 4 5 4 7 12 8 7 10 11 14 18 21 23 22 19 17 16 16 18 20 21 21 22
46 48 50 52 50 46 46 47 47 50 52 53 51 45 33 27 36 39 33 29 23 24 35 41 43 44 41 36 32 36 38 31 33 35 36 42 43 43 43 41 40 37 33 29 27 30 24 18 23 26 24 22 22 24 25 22 22 23 23 22 23 20 11 6 6 6 8 6 6 11 10 11 11 9 8 8 13 19 23 25 24 21 19 18 18 18 19 20
46 47 47 48 48 46 47 48 49 52 54 56 51 44 43 41 39 38 34 32 28 31 38 38 41 44 39 34 31 35 39 35 34 35 36 40 41 42 43 42 42 40 36 31 26 26 25 20 20 24 26 26 22 22 25 23 20 22 25 25 25 22 14 7 5 5 6 4 5 11 14 18 17 13 12 11 12 13 16 21 25 25 23 21 18 17 17 17
47 48 47 48 48 48 49 49 52 55 54 57 53 49 50 42 33 34 34 30 28 33 41 40 38 42 40 35 34 37 39 35 34 36 36 36 37 41 44 41 41 42 39 34 29 26 25 20 19 21 24 29 27 23 26 28 23 23 26 28 26 21 17 11 4 2 3 1 4 12 16 18 14 12 13 17 19 18 16 16 20 24 24 21 18 17 16 15
47 48 48 50 51 51 52 51 54 58 56 56 54 50 46 34 28 32 33 33 32 33 40 41 38 41 41 37 35 38 39 36 35 36 34 33 31 37 44 41 40 42 40 36 31 29 28 21 18 22 22 24 27 26 26 29 28 25 26 28 24 16 15 16 9 2 2 2 2 8 13 15 16 15 12 13 17 20 19 16 16 18 20 20 18 17 17 16
46 48 49 51 53 53 54 55 56 59 58 58 56 47 39 34 32 32 32 35 35 34 37 39 39 41 41 40 38 40 41 39 38 35 31 32 28 29 40 42 39 40 40 39 33 29 30 22 15 21 25 22 25 29 30 31 31 27 24 26 26 18 13 16 17 8 3 3 3 4 5 10 19 21 17 13 13 14 16 17 16 14 15 17 17 16 16 15
45 48 49 52 55 55 56 57 58 60 60 62 59 46 38 37 36 32 29 33 35 34 34 37 41 43 41 40 40 42 45 42 41 39 33 33 29 26 34 40 39 40 39 39 35 29 29 25 17 17 22 23 25 29 32 32 32 31 27 27 29 26 16 12 17 18 9 2 2 3 3 7 14 16 16 18 17 15 16 16 15 14 14 15 15 16 15 14
44 46 48 52 55 56 59 59 60 62 62 59 52 43 39 38 36 32 30 32 36 36 33 34 40 44 42 39 39 44 46 42 42 42 37 36 35 30 32 37 38 40 39 39 38 31 26 24 21 18 21 25 26 28 30 32 33 33 33 32 31 32 25 10 8 18 19 11 6 3 3 4 4 6 11 16 17 16 17 17 16 15 15 16 16 16 15 14
42 45 48 53 56 57 61 62 62 63 60 53 48 43 41 40 37 34 31 33 36 36 34 32 35 40 41 38 39 43 45 44 43 43 41 41 40 36 33 34 36 37 38 39 39 36 29 23 20 18 19 23 25 26 28 30 32 33 34 34 31 31 30 19 8 13 19 18 12 5 3 3 6 7 6 7 8 9 10 13 16 17 17 18 17 17 17 16
43 44 45 51 55 57 61 62 61 61 57 52 51 46 42 41 39 36 34 33 34 36 35 32 32 35 38 37 37 41 44 43 43 45 44 42 40 37 33 32 33 34 36 37 37 38 33 25 21 17 15 20 23 25 27 29 31 32 33 36 34 32 33 31 22 15 13 17 16 6 3 11 14 12 11 11 11 10 9 10 13 15 17 17 18 18 18 18
45 44 45 49 53 57 62 62 63 65 59 51 50 46 43 44 41 39 38 36 35 36 36 35 32 33 37 36 35 39 41 38 39 43 42 38 39 39 36 33 30 30 33 34 36 37 32 25 23 15 7 10 15 16 22 28 32 34 34 36 37 36 34 32 29 19 10 15 19 11 7 19 24 23 23 20 16 16 14 12 14 15 16 17 18 19 19 19
45 45 44 49 54 57 61 62 63 65 59 50 47 46 46 45 41 39 40 39 37 36 36 37 35 33 35 36 33 34 38 38 37 40 40 38 38 38 38 35 31 28 29 29 32 35 31 29 28 20 9 8 11 14 23 31 33 35 35 35 37 36 33 32 30 23 14 15 19 17 17 24 26 24 24 20 17 17 15 12 15 16 17 19 20 20 20 20
45 50 49 51 54 57 62 63 63 63 60 54 49 47 46 45 42 38 37 39 39 38 37 37 37 35 32 34 34 32 35 38 37 37 40 41 39 38 38 37 33 29 27 26 29 32 33 34 35 32 29 27 27 28 31 31 31 33 34 35 37 37 37 35 31 28 27 24 23 26 29 30 30 27 23 19 17 17 14 11 11 13 16 20 21 20 19 19
43 53 57 57 56 57 62 64 63 63 62 59 54 50 49 47 45 41 38 39 41 41 39 37 38 38 34 34 36 34 34 37 38 37 37 39 41 40 37 36 35 32 29 27 29 30 32 34 35 37 39 38 37 36 34 32 33 34 34 35 38 39 40 40 36 36 37 29 24 34 38 36 37 33 25 21 19 16 14 11 10 11 14 17 19 21 20 19
39 49 59 61 60 62 67 69 67 64 61 59 53 49 47 46 46 46 43 42 41 42 42 39 38 40 40 38 37 35 33 35 37 37 36 36 39 40 38 37 35 34 31 29 29 31 32 34 35 37 37 37 37 36 34 34 35 36 36 36 38 40 42 44 42 43 42 34 32 40 41 40 41 36 31 29 22 16 16 15 13 13 15 16 20 22 22 22
37 45 55 60 59 63 69 71 67 60 55 54 50 45 46 47 48 49 48 45 43 42 43 43 42 41 40 39 38 36 36 36 37 38 39 37 36 37 37 37 35 35 33 31 31 31 32 32 34 34 36 37 37 35 34 34 33 35 36 36 36 38 41 43 43 42 43 43 44 44 41 41 40 34 31 30 24 21 22 21 17 16 16 18 21 22 24 25
36 43 53 59 58 59 64 66 64 57 51 49 49 45 45 48 49 48 48 49 49 46 44 45 45 43 40 39 38 38 39 40 38 37 37 37 36 35 35 36 37 37 35 32 32 32 32 30 29 30 32 34 36 37 35 33 32 32 33 33 33 34 36 40 41 42 44 47 47 44 44 44 41 36 33 30 28 27 27 24 20 19 18 20 22 24 26 27
35 40 50 57 56 54 59 64 62 58 52 49 52 51 47 47 50 49 47 48 49 50 50 48 44 41 40 39 38 39 38 37 36 34 33 32 32 31 31 32 33 34 35 35 32 33 34 30 26 26 26 29 33 35 35 34 32 30 30 31 32 34 36 39 40 40 42 44 44 45 47 44 40 37 36 35 34 32 31 27 23 21 20 21 24 26 28 30
34 38 47 56 55 49 54 61 60 58 57 55 56 55 50 47 48 47 44 44 46 48 49 48 44 40 40 40 40 39 37 34 34 33 30 27 25 25 25 26 28 29 31 34 34 35 37 34 29 23 21 25 29 30 33 31 22 24 35 39 40 41 40 39 38 37 37 38 40 43 44 39 34 35 36 37 37 36 34 31 27 24 22 22 25 29 31 32
Wind_Direction
209 208 209 212 212 212 212 212 215 217 218 216 214 212 211 213 214 216 215 213 215 219 224 228 226 221 220 221 220 215 211 209 208 212 216 214 211 210 211 212 213 216 215 217 216 212 210 206 201 201 200 201 200 197 195 193 193 196 202 207 204 210 235 232 226 228 220 213 219 220 213 207 206 202 197 203 202 196 194 189 191 195 195 192 180 180 179 173
209 209 209 212 210 210 211 211 214 216 216 215 214 212 211 212 212 214 215 212 215 218 223 228 223 218 222 223 219 214 209 206 208 214 216 213 211 211 212 214 214 215 214 214 214 212 208 203 202 197 194 198 197 196 196 194 196 197 201 204 204 217 223 205 205 215 216 214 218 219 212 208 209 207 204 206 206 202 199 196 197 199 199 195 187 187 184 178
208 208 206 210 208 208 210 211 213 214 214 214 213 210 209 211 211 212 213 212 214 217 220 225 221 215 217 218 212 208 205 203 209 215 214 213 214 212 211 213 216 217 216 212 211 211 203 199 205 196 188 195 196 196 197 196 198 199 200 201 209 231 228 213 209 212 220 222 219 215 210 210 208 204 207 210 209 206 205 204 203 202 204 199 193 193 190 184
208 208 203 204 204 206 209 210 212 212 211 211 210 207 208 210 209 210 211 210 212 215 218 222 219 213 211 211 206 203 200 204 214 215 214 217 216 214 212 214 221 222 220 214 211 210 200 198 207 197 187 192 195 197 199 197 196 198 199 199 212 229 229 225 225 227 231 230 227 220 212 214 211 203 207 212 212 210 208 210 208 204 206 205 200 198 195 190
208 211 205 201 204 207 209 212 213 212 209 209 209 206 207 208 207 208 209 209 210 213 217 219 215 211 209 209 206 200 197 210 223 218 217 221 218 217 216 218 223 223 219 214 211 207 195 196 207 199 188 190 197 199 200 197 195 199 198 194 202 210 220 229 232 233 233 232 233 225 216 218 214 206 209 213 215 212 210 214 212 206 205 206 204 201 199 195
207 210 208 202 207 210 210 215 216 212 210 209 208 205 206 207 206 207 207 207 207 210 214 215 211 208 209 208 204 200 198 210 225 219 219 223 219 218 217 219 221 218 215 210 210 204 188 193 205 199 188 187 199 204 201 199 196 201 200 196 206 216 220 229 231 229 230 231 231 219 215 219 215 213 211 208 211 212 211 215 217 213 206 207 206 203 200 199
206 207 207 203 208 211 212 216 216 212 210 208 206 205 206 206 205 205 205 204 204 208 211 211 208 204 205 205 199 198 202 206 215 216 220 224 220 216 214 217 217 214 212 206 208 202 184 193 203 196 189 184 198 206 202 203 200 199 202 205 213 230 226 226 229 225 228 230 229 221 216 215 213 216 210 204 212 215 214 214 217 216 208 209 211 206 203 201
203 204 205 204 208 211 212 215 215 213 211 208 205 204 206 205 204 203 202 202 202 205 209 207 203 199 198 199 196 200 207 210 221 229 226 226 222 216 213 217 217 213 211 205 208 201 184 191 199 193 189 180 193 213 208 209 206 199 201 210 215 225 226 224 227 224 228 230 228 223 216 215 214 217 210 207 218 222 220 217 217 218 209 209 213 209 207 205
202 202 202 205 208 210 212 215 215 215 213 209 205 204 205 205 203 201 201 200 200 203 206 204 199 197 195 193 195 202 205 205 222 230 227 221 218 217 213 215 216 214 211 207 208 200 184 187 194 189 185 180 193 219 217 215 212 205 204 210 213 221 224 223 227 224 227 225 223 222 218 217 215 217 212 212 221 222 222 220 217 219 212 211 213 210 209 209
201 200 203 207 209 210 213 216 217 216 213 210 205 203 204 204 202 200 199 198 198 201 203 201 197 197 197 196 200 202 194 189 208 223 234 220 212 216 215 214 215 215 214 209 209 198 181 183 191 186 184 189 196 204 216 216 213 211 210 211 210 217 222 222 225 223 224 222 220 223 219 215 216 215 211 217 224 221 222 221 217 218 214 212 213 209 208 209
199 199 204 209 209 211 215 217 217 215 213 210 205 203 203 203 201 198 197 196 196 199 201 200 197 200 205 203 204 200 185 188 205 214 239 230 217 217 216 217 215 217 217 213 212 196 174 179 193 191 189 193 198 199 212 210 206 211 212 215 214 214 218 219 220 219 220 219 220 225 222 218 221 218 215 221 224 220 222 221 217 217 214 215 215 211 208 208
196 198 205 210 209 210 216 217 214 213 212 209 205 204 204 201 199 196 196 196 196 198 199 199 198 204 210 202 198 197 183 188 206 211 225 232 234 223 215 218 218 219 220 218 212 189 167 180 195 194 193 195 205 213 216 208 204 208 209 215 218 214 217 216 215 216 217 217 220 225 228 229 227 222 223 226 225 222 221 219 218 215 212 215 217 216 214 213
196 199 205 208 208 210 216 215 211 213 212 208 205 204 203 200 197 195 195 195 195 197 197 199 200 205 211 203 200 204 190 189 207 217 225 230 240 231 214 215 217 220 221 219 209 183 166 183 196 198 197 197 206 218 222 211 207 209 204 213 219 218 218 216 213 215 216 217 220 223 228 237 237 229 231 232 228 225 223 221 219 217 215 215 218 219 219 220
196 201 205 206 208 211 214 212 211 213 210 206 204 203 202 198 195 194 194 194 195 197 197 199 202 205 210 208 207 207 195 194 207 217 230 234 233 228 213 209 215 219 215 215 205 179 165 187 203 206 203 200 203 210 220 214 210 211 205 209 219 221 220 218 215 216 216 216 218 224 228 234 243 231 230 233 233 231 226 225 224 222 221 218 220 221 221 222
198 201 203 204 207 210 211 211 212 212 208 204 201 201 201 197 195 193 192 193 195 196 197 201 204 206 210 210 209 204 195 200 210 217 230 233 229 223 205 194 210 215 208 208 197 173 168 201 209 210 207 202 204 206 212 215 212 210 207 207 213 218 221 219 216 217 219 220 220 224 227 226 233 233 227 228 233 236 233 228 228 227 227 224 223 224 224 223
198 200 201 203 205 209 210 211 212 209 205 201 199 199 199 196 194 192 192 193 195 196 198 202 205 207 210 210 211 204 196 204 213 216 221 220 220 215 194 176 192 206 199 195 184 169 188 216 212 212 209 204 205 201 204 216 214 208 208 208 208 208 215 220 218 218 221 224 226 226 226 223 234 241 238 234 231 235 238 233 232 231 230 229 227 228 227 225
197 199 200 202 205 207 208 209 208 205 202 198 196 197 197 195 193 191 192 193 195 197 200 204 206 210 213 211 211 208 202 207 212 213 212 211 207 198 186 178 183 187 179 176 176 185 207 215 212 213 212 209 206 198 200 214 212 204 205 209 211 208 213 220 218 220 222 224 228 231 230 222 224 233 235 237 232 232 238 237 236 233 232 231 229 230 230 228
195 198 198 202 205 204 204 205 204 201 198 196 195 195 194 194 192 191 192 193 194 197 200 205 205 207 214 213 211 209 205 206 209 207 200 201 197 185 184 187 179 172 169 173 188 200 205 213 214 212 215 212 205 199 201 210 210 202 201 205 211 209 213 222 222 222 226 227 229 233 234 227 226 234 235 236 234 235 239 238 238 235 232 232 231 231 233 232
195 195 197 201 203 201 200 201 200 197 195 193 192 192 192 191 190 192 194 194 195 196 198 202 202 202 209 213 212 208 203 202 202 196 191 199 197 183 183 189 179 174 180 187 195 199 202 210 211 209 213 211 205 202 201 206 211 210 208 206 209 210 212 221 227 228 230 231 232 235 239 235 232 240 246 246 244 245 243 238 238 236 232 233 233 232 233 234
195 195 197 200 200 198 198 198 197 195 192 190 189 188 187 186 187 190 193 195 198 200 201 204 203 203 207 211 212 208 198 195 196 192 191 198 195 182 182 186 180 184 195 193 194 200 204 211 213 211 211 211 210 204 202 205 208 217 219 213 213 217 218 222 227 229 230 231 235 238 243 244 240 242 249 253 250 243 241 239 236 236 234 232 233 233 234 235
194 195 196 198 198 196 195 195 194 193 190 188 187 187 187 186 187 188 189 191 197 203 207 208 205 206 209 210 212 209 200 193 190 190 189 186 185 184 185 185 185 193 199 195 198 202 207 216 217 214 210 214 216 205 199 211 214 214 219 217 217 220 223 226 228 229 231 235 240 243 245 247 248 247 248 252 251 241 236 239 238 236 236 234 233 232 233 234
193 194 194 195 195 193 193 193 191 189 186 187 187 189 190 190 191 192 188 188 191 198 205 206 203 206 210 209 208 207 202 196 187 185 186 183 186 190 190 189 190 196 196 193 202 204 211 218 217 216 211 206 217 209 202 214 217 206 206 213 216 220 224 228 231 232 235 240 243 246 248 250 251 250 247 249 252 249 241 238 238 238 238 237 235 232 231 233
192 191 191 191 191 190 190 189 186 184 184 186 186 188 190 191 195 195 192 189 187 189 198 202 200 202 206 207 209 206 200 198 192 184 184 187 190 192 193 193 191 198 196 192 202 208 213 218 216 219 213 201 209 214 211 216 216 207 203 208 212 217 222 225 229 232 235 240 242 245 251 252 251 251 250 248 251 254 250 243 238 238 240 240 238 234 232 233
190 187 187 188 187 186 186 184 182 183 184 184 185 187 187 190 193 191 192 193 190 189 193 198 200 201 205 208 213 214 200 197 196 188 185 188 192 192 195 196 193 198 200 195 204 212 215 219 217 218 216 209 209 213 214 215 215 213 208 205 215 223 224 226 230 233 234 236 239 243 253 256 252 252 253 249 250 252 251 248 241 237 240 242 242 238 233 234
186 184 184 183 183 183 182 181 181 182 183 183 186 187 186 188 188 185 190 190 187 192 195 198 201 204 210 212 213 215 203 195 195 192 190 190 192 192 192 196 197 200 202 200 205 214 217 223 225 222 218 216 216 215 215 214 215 220 217 209 217 230 230 230 233 233 231 233 237 237 248 263 258 256 256 251 250 251 249 249 246 242 240 241 243 242 238 235
184 183 181 180 180 180 180 182 181 181 182 183 187 187 184 185 183 181 186 181 179 192 196 198 201 203 206 207 205 206 202 197 194 195 195 192 194 195 190 193 199 203 205 204 208 216 218 221 226 224 219 219 219 220 220 216 215 221 229 223 218 226 227 227 230 226 224 230 237 232 229 255 260 254 259 254 248 249 247 248 248 246 243 241 241 244 242 239
182 181 179 179 179 180 181 181 180 181 183 184 186 186 183 182 179 177 174 162 186 198 194 195 199 200 197 194 195 195 196 196 194 197 201 197 196 196 195 197 197 198 200 201 207 215 217 215 218 219 218 220 221 224 224 220 217 217 228 229 221 224 226 228 229 225 226 231 236 230 225 241 251 240 243 254 249 247 245 245 246 246 245 243 241 241 243 242
181 178 178 179 179 181 182 181 181 183 182 182 184 184 181 178 172 169 162 129 193 197 195 194 194 197 194 189 191 193 195 196 194 198 202 201 198 195 198 204 201 196 197 201 204 210 215 212 214 218 220 223 225 228 227 223 221 218 220 227 222 224 229 231 228 223 227 231 231 228 218 230 255 245 237 243 243 243 246 245 245 246 245 245 243 240 241 242
179 177 178 179 179 181 182 182 185 182 179 181 182 180 176 168 161 160 158 161 179 186 195 195 190 192 192 190 194 196 196 195 196 198 198 199 200 196 198 204 206 205 205 209 209 210 218 217 217 223 226 228 228 230 228 224 224 219 218 223 219 223 228 228 229 223 222 228 235 232 218 219 265 254 238 239 244 248 253 255 251 248 246 245 244 242 240 240
178 178 178 179 179 181 181 181 181 178 178 180 178 174 167 158 160 162 167 189 177 180 191 192 190 189 188 190 195 196 195 195 197 197 193 196 199 197 198 201 205 210 209 212 215 215 219 220 221 225 227 229 229 229 227 224 224 221 217 214 210 218 223 222 219 213 215 235 235 229 217 215 253 264 243 242 250 255 256 256 254 251 247 245 244 242 241 240
178 178 179 180 180 181 182 178 174 175 177 174 169 166 160 158 168 170 172 183 176 176 185 190 191 189 188 191 192 191 193 195 197 195 191 194 197 196 197 196 198 206 208 210 214 214 214 217 220 224 226 228 229 228 225 223 222 220 216 212 203 192 198 206 201 197 206 243 224 219 214 211 223 238 231 240 252 259 258 256 255 252 247 245 244 243 241 240
179 179 180 181 181 181 180 174 172 175 172 166 163 162 160 161 177 188 179 177 179 183 186 189 192 190 189 191 192 190 190 192 194 196 194 192 195 198 198 196 194 195 200 205 209 211 214 217 219 222 223 224 225 223 219 219 218 215 211 206 196 164 160 195 194 194 217 231 211 209 206 214 233 241 235 233 243 251 255 257 256 250 246 244 243 243 241 239
179 181 181 181 181 179 175 171 173 173 166 161 160 162 163 162 187 194 182 177 189 195 191 191 192 191 188 187 191 191 190 192 193 195 199 196 196 199 200 203 202 200 201 203 204 207 213 221 221 220 220 221 222 218 213 212 211 208 205 200 190 161 127 201 197 194 222 230 212 197 199 227 245 251 248 239 236 239 246 254 254 248 244 243 242 241 240 238
180 182 182 182 181 176 171 170 172 170 164 160 159 162 166 176 191 189 185 184 186 191 194 191 187 187 187 187 192 191 188 192 194 193 197 197 197 200 201 204 206 208 208 206 206 207 208 221 222 219 220 219 219 219 219 219 214 208 205 203 198 189 183 192 186 190 186 180 188 182 192 237 234 247 256 246 242 242 242 247 250 249 244 240 238 238 237 238
180 182 183 182 177 171 170 171 171 167 163 162 162 164 174 191 192 187 188 189 179 177 188 190 183 182 185 188 193 195 191 190 193 194 196 198 199 200 201 203 204 205 206 203 205 208 211 222 225 221 222 222 220 219 221 221 216 208 201 203 204 202 206 197 185 195 172 146 179 192 208 235 228 235 246 240 246 242 237 239 243 247 243 237 238 239 238 239
180 181 182 180 173 168 172 172 168 167 166 165 165 173 186 193 191 187 189 190 183 174 174 176 180 179 179 186 194 198 197 194 192 193 198 202 204 204 204 205 205 205 205 202 199 201 207 216 223 222 220 220 219 217 217 216 213 205 200 204 207 206 212 206 182 189 166 147 212 209 224 241 242 245 237 230 247 249 240 240 242 244 243 243 246 242 237 236
180 179 178 177 172 169 173 172 167 167 168 170 173 184 193 193 190 190 191 189 185 176 168 167 177 180 177 184 192 196 198 195 192 193 197 200 205 209 208 208 210 208 208 208 205 205 207 209 215 220 217 217 216 212 212 216 215 206 202 206 208 209 219 222 207 173 158 170 221 208 225 241 238 242 244 239 244 248 247 246 243 243 244 245 243 236 234 235
179 178 177 175 172 171 172 170 169 169 170 175 183 190 193 191 189 191 194 190 182 178 175 171 178 183 181 184 188 192 196 195 194 194 195 198 206 211 209 209 212 212 210 210 209 211 211 207 208 216 216 215 214 208 206 210 213 210 207 208 206 208 218 215 210 201 173 207 247 214 223 233 230 234 246 244 241 242 243 244 242 240 240 240 235 234 238 239
178 177 177 176 173 172 172 170 171 172 173 182 189 192 192 191 192 193 196 193 185 182 183 180 181 184 187 190 188 190 196 197 197 196 196 202 207 211 211 210 212 212 209 208 209 210 211 208 202 209 212 211 209 207 206 207 208 209 210 209 208 209 213 212 213 216 186 183 229 221 212 235 243 246 247 243 240 238 237 241 241 239 237 234 231 233 235 232
181 180 177 176 175 173 171 171 173 175 180 190 193 192 193 193 193 194 194 194 191 189 189 189 188 186 189 194 193 194 198 198 200 201 202 207 208 209 212 212 213 213 209 207 208 209 210 210 206 201 203 205 207 209 213 214 211 209 210 209 210 211 210 215 222 223 223 214 204 212 236 250 254 252 239 234 238 239 237 241 242 240 235 226 221 225 228 227
182 182 179 177 177 174 171 172 176 181 187 194 193 193 196 196 195 194 192 194 196 195 193 194 194 191 189 192 196 199 199 197 202 205 205 209 211 210 212 213 214 214 209 205 207 208 208 209 207 198 196 203 210 215 218 219 217 217 217 215 215 213 208 205 222 219 221 229 217 202 247 238 213 206 212 223 236 243 243 244 244 241 236 226 221 227 232 234
183 184 181 179 179 176 173 175 180 185 190 193 192 195 199 199 198 198 195 196 198 197 196 196 198 196 192 192 198 202 201 198 202 206 208 212 214 213 214 215 216 217 215 210 208 209 210 208 204 200 202 209 213 215 216 218 220 220 221 220 220 217 212 210 213 211 215 223 226 229 278 217 159 145 167 202 230 246 251 248 244 243 241 236 233 236 238 235
186 186 181 180 181 178 177 178 182 187 192 193 193 197 201 200 200 200 199 199 199 198 198 199 199 199 198 196 199 204 204 202 204 208 211 213 215 216 216 218 218 218 218 215 210 209 210 210 201 190 198 209 211 214 217 217 219 220 222 223 222 222 221 219 221 224 220 220 220 214 253 237 227 226 239 245 249 255 254 245 241 243 244 244 244 243 239 233
184 186 179 179 181 181 182 183 185 189 192 193 195 199 203 202 203 203 201 202 202 200 200 201 202 201 200 198 201 207 207 204 205 209 212 213 215 215 215 218 219 218 219 218 214 210 209 208 199 177 159 202 209 215 217 215 217 220 223 225 224 226 225 221 222 227 235 231 222 209 230 245 246 250 254 255 255 255 252 241 237 240 243 245 247 244 238 232
176 182 178 178 181 183 187 190 191 191 191 192 195 201 202 202 205 206 205 205 204 202 202 203 206 207 203 199 201 208 211 210 208 209 211 214 216 217 216 217 218 219 222 223 220 216 212 209 206 194 175 192 205 212 215 214 216 219 223 224 224 223 222 220 221 222 228 236 226 217 235 248 250 253 255 252 249 253 255 245 236 236 237 240 245 245 239 232
168 173 174 175 180 186 191 194 194 193 193 194 196 200 202 202 204 205 206 208 207 206 204 205 207 209 207 205 204 208 213 214 212 212 213 214 215 216 217 217 217 216 218 220 219 218 214 215 218 217 216 220 224 226 226 224 221 223 227 228 226 224 224 223 220 218 225 233 231 232 242 250 251 252 252 250 251 257 257 247 236 233 232 236 241 244 238 228
166 171 175 176 179 187 193 196 196 196 197 197 198 199 201 203 204 202 204 208 210 209 207 207 209 209 208 209 209 212 215 215 216 218 217 217 219 218 218 218 218 216 215 215 215 215 214 216 221 224 227 232 235 236 237 235 232 232 233 234 231 228 225 221 219 225 229 228 233 240 243 246 249 249 247 252 256 254 249 245 240 236 233 234 239 243 236 223
170 173 180 182 182 188 193 196 198 198 199 200 200 200 199 201 203 203 202 205 209 211 210 208 211 213 213 213 211 211 214 215 219 221 221 221 220 219 217 216 216 216 213 211 212 214 216 220 223 226 231 235 236 238 238 237 238 239 239 239 237 232 226 222 224 232 231 225 235 244 244 246 251 251 251 255 255 244 245 253 249 241 238 237 241 241 230 216
179 177 181 185 188 191 194 196 197 196 198 200 200 201 200 201 204 205 205 204 205 210 213 212 213 214 215 216 215 213 212 213 216 218 220 222 220 219 218 215 215 215 212 208 211 214 218 223 226 228 231 234 233 234 235 236 239 241 241 243 242 238 235 232 235 240 237 234 241 247 247 248 252 254 255 258 255 247 251 256 249 241 241 243 244 236 221 211
184 183 184 187 191 193 194 196 196 195 198 201 202 203 204 204 204 204 206 208 206 207 211 214 215 215 215 216 217 218 219 219 219 218 219 220 221 221 221 220 219 217 212 208 208 213 219 224 226 227 230 233 232 232 233 234 237 239 241 242 242 240 240 239 241 243 240 239 243 245 246 250 252 254 255 257 256 254 256 256 248 241 243 246 243 233 220 216
188 188 188 190 193 195 194 195 196 196 197 201 204 205 205 206 207 205 207 212 213 212 213 215 215 215 215 216 218 221 223 225 227 228 227 227 227 226 227 228 227 222 217 213 210 213 219 223 225 226 229 233 233 232 232 233 236 238 237 237 238 238 239 240 241 242 241 241 244 244 245 249 252 253 255 257 258 258 259 258 248 240 242 246 243 236 229 228
193 192 193 193 195 197 196 195 196 197 199 203 206 205 206 208 208 207 207 211 214 217 218 218 216 213 214 217 219 222 224 226 229 232 234 237 239 239 239 239 239 235 229 224 219 217 221 225 225 222 227 235 235 234 235 234 235 236 235 237 240 241 242 243 244 245 245 245 246 246 247 252 256 257 257 258 258 259 260 260 255 250 250 247 243 241 238 236
Height
3015 3020 3024 3029 3033 3038 3042 3046 3049 3052 3057 3063 3067 3072 3075 3079 3083 3086 3089 3092 3094 3096 3098 3099 3101 3103 3105 3108 3111 3113 3116 3118 3121 3123 3125 3130 3134 3136 3138 3140 3142 3144 3147 3149 3152 3155 3157 3160 3161 3163 3164 3166 3167 3169 3171 3172 3174 3175 3177 3178 3179 3180 3180 3181 3181 3181 3181 3182 3183 3184 3185 3186 3187 3188 3189 3190 3190 3191 3192 3192 3193 3194 3195 3196 3197 3197 3198 3199
3013 3016 3020 3025 3029 3034 3038 3042 3046 3049 3054 3060 3064 3069 3073 3076 3080 3084 3087 3090 3093 3094 3096 3098 3100 3102 3104 3106 3108 3111 3113 3116 3118 3120 3124 3129 3132 3134 3137 3138 3140 3142 3145 3148 3151 3153 3156 3158 3160 3160 3162 3164 3166 3168 3170 3172 3173 3174 3176 3177 3178 3179 3180 3180 3180 3180 3180 3181 3182 3183 3184 3185 3186 3187 3188 3189 3190 3191 3191 3192 3192 3193 3194 3195 3196 3197 3198 3199
3008 3010 3015 3020 3025 3030 3035 3040 3043 3047 3052 3057 3061 3066 3070 3074 3078 3082 3085 3089 3091 3093 3095 3096 3098 3100 3103 3105 3107 3109 3112 3115 3116 3118 3124 3128 3129 3133 3135 3136 3138 3140 3144 3146 3149 3151 3154 3156 3158 3158 3159 3162 3165 3167 3169 3170 3172 3173 3175 3177 3178 3178 3179 3178 3179 3180 3180 3181 3182 3183 3184 3184 3185 3187 3188 3188 3189 3190 3191 3191 3192 3193 3194 3195 3196 3197 3198 3199
3003 3006 3012 3018 3023 3027 3032 3037 3041 3045 3050 3053 3057 3063 3067 3071 3076 3080 3083 3087 3089 3091 3093 3095 3097 3099 3102 3104 3106 3108 3112 3114 3113 3118 3125 3126 3128 3132 3134 3135 3137 3139 3142 3144 3147 3150 3152 3154 3157 3157 3158 3160 3163 3165 3167 3169 3171 3173 3174 3176 3177 3177 3177 3177 3179 3180 3180 3181 3182 3183 3183 3183 3184 3186 3187 3188 3188 3189 3190 3190 3191 3192 3193 3194 3196 3197 3198 3199
2999 3004 3010 3016 3021 3025 3029 3034 3038 3043 3047 3051 3055 3060 3064 3069 3073 3077 3081 3085 3087 3090 3092 3094 3096 3098 3101 3103 3105 3107 3112 3114 3113 3120 3124 3124 3127 3130 3133 3134 3135 3138 3140 3142 3145 3147 3149 3153 3157 3157 3157 3159 3162 3164 3165 3168 3170 3171 3172 3174 3175 3175 3175 3176 3178 3179 3180 3180 3181 3182 3182 3183 3184 3186 3186 3187 3188 3189 3189 3189 3190 3191 3193 3194 3195 3196 3197 3198
2997 3002 3008 3014 3018 3022 3027 3031 3035 3041 3044 3048 3052 3057 3062 3066 3071 3075 3079 3083 3086 3089 3091 3093 3095 3097 3100 3102 3105 3107 3111 3113 3114 3119 3121 3121 3125 3128 3131 3132 3133 3136 3138 3140 3144 3145 3148 3153 3156 3157 3157 3159 3162 3163 3165 3168 3169 3170 3171 3173 3173 3173 3174 3176 3177 3178 3179 3179 3180 3181 3181 3182 3184 3185 3186 3187 3187 3187 3188 3189 3189 3191 3193 3194 3195 3196 3197 3198
2994 2999 3006 3011 3015 3019 3024 3028 3033 3038 3041 3045 3050 3055 3059 3064 3069 3073 3078 3081 3084 3087 3089 3092 3094 3097 3099 3100 3103 3106 3109 3111 3114 3118 3119 3120 3123 3126 3129 3130 3131 3133 3136 3139 3142 3144 3147 3152 3155 3156 3157 3159 3162 3163 3166 3167 3168 3169 3171 3171 3172 3173 3174 3175 3176 3177 3178 3179 3179 3180 3181 3182 3183 3183 3185 3186 3185 3186 3187 3188 3189 3190 3192 3194 3194 3195 3196 3197
2991 2997 3003 3009 3013 3017 3021 3025 3030 3035 3038 3042 3047 3052 3056 3061 3066 3071 3076 3079 3083 3086 3088 3091 3093 3096 3098 3100 3102 3105 3108 3112 3114 3116 3118 3119 3121 3124 3126 3128 3130 3131 3134 3137 3139 3142 3146 3150 3154 3156 3157 3159 3162 3164 3165 3167 3167 3168 3169 3170 3171 3172 3174 3175 3175 3176 3177 3178 3179 3180 3180 3181 3182 3183 3184 3185 3184 3186 3187 3188 3189 3189 3191 3193 3193 3195 3195 3196
2988 2994 3001 3006 3010 3014 3018 3022 3028 3033 3036 3040 3044 3049 3054 3059 3064 3069 3074 3078 3081 3084 3087 3090 3092 3095 3097 3100 3102 3104 3109 3113 3114 3114 3116 3117 3120 3123 3124 3126 3128 3130 3133 3135 3138 3140 3143 3148 3153 3155 3156 3158 3161 3163 3164 3165 3166 3167 3168 3169 3170 3172 3173 3174 3175 3175 3176 3177 3178 3179 3180 3181 3181 3182 3184 3184 3184 3186 3187 3188 3188 3189 3190 3192 3193 3194 3195 3196
2986 2992 2998 3003 3007 3011 3015 3020 3026 3030 3033 3037 3042 3047 3051 3056 3062 3067 3072 3076 3080 3083 3086 3089 3091 3094 3096 3098 3101 3104 3109 3112 3113 3113 3115 3116 3118 3120 3122 3124 3127 3129 3131 3134 3136 3138 3142 3149 3153 3154 3154 3156 3158 3161 3163 3164 3165 3166 3167 3168 3169 3171 3172 3173 3174 3174 3176 3177 3178 3178 3179 3180 3181 3181 3182 3183 3183 3185 3186 3187 3188 3188 3190 3191 3192 3193 3194 3195
2983 2990 2995 2999 3004 3009 3012 3018 3023 3027 3031 3035 3040 3044 3049 3054 3060 3065 3070 3074 3078 3082 3085 3088 3090 3092 3095 3097 3099 3104 3108 3110 3111 3113 3114 3116 3117 3119 3121 3123 3125 3128 3130 3133 3135 3137 3142 3149 3152 3153 3153 3155 3157 3159 3160 3162 3164 3164 3166 3167 3168 3170 3171 3171 3172 3173 3175 3176 3177 3177 3178 3179 3180 3180 3181 3182 3183 3185 3185 3186 3187 3188 3189 3190 3191 3192 3193 3194
2981 2987 2992 2996 3001 3006 3010 3015 3021 3024 3028 3032 3037 3042 3046 3052 3057 3063 3068 3072 3077 3080 3083 3086 3089 3092 3095 3097 3099 3103 3107 3109 3110 3112 3114 3115 3116 3118 3119 3121 3124 3127 3129 3131 3134 3136 3141 3146 3150 3152 3153 3154 3156 3158 3159 3161 3163 3163 3165 3167 3167 3169 3169 3170 3171 3172 3173 3175 3176 3176 3178 3178 3178 3180 3181 3182 3183 3184 3184 3185 3186 3186 3187 3188 3190 3191 3192 3193
2979 2984 2988 2993 2998 3003 3008 3013 3018 3021 3025 3029 3034 3039 3044 3050 3055 3061 3066 3071 3075 3079 3082 3085 3088 3091 3093 3096 3099 3103 3106 3108 3109 3111 3113 3114 3115 3116 3118 3120 3122 3125 3128 3130 3133 3135 3139 3144 3148 3150 3152 3153 3155 3157 3158 3159 3161 3162 3164 3165 3166 3167 3167 3168 3170 3171 3173 3174 3175 3176 3176 3176 3178 3180 3180 3181 3182 3183 3183 3184 3185 3185 3186 3187 3188 3190 3191 3192
2976 2981 2986 2991 2996 3001 3006 3011 3015 3019 3023 3027 3032 3037 3042 3048 3053 3058 3064 3069 3074 3077 3082 3085 3087 3090 3092 3095 3099 3101 3104 3107 3108 3109 3111 3113 3114 3115 3117 3119 3120 3122 3125 3128 3132 3135 3138 3144 3147 3148 3150 3151 3153 3155 3156 3158 3160 3161 3163 3163 3164 3165 3165 3167 3169 3170 3171 3172 3173 3175 3175 3176 3177 3178 3179 3180 3181 3182 3182 3183 3184 3184 3185 3186 3187 3189 3190 3191
2973 2978 2984 2989 2994 2999 3003 3008 3012 3016 3021 3025 3030 3035 3040 3046 3051 3057 3062 3067 3072 3076 3081 3084 3086 3089 3092 3095 3096 3099 3103 3105 3106 3109 3110 3111 3113 3114 3116 3118 3119 3120 3123 3127 3131 3134 3139 3143 3145 3146 3148 3151 3152 3153 3156 3157 3158 3160 3161 3160 3162 3163 3164 3166 3168 3169 3170 3171 3172 3173 3174 3175 3176 3177 3178 3179 3180 3181 3181 3182 3183 3183 3184 3185 3186 3187 3189 3190
2971 2976 2982 2987 2991 2996 3001 3006 3010 3014 3018 3022 3027 3032 3038 3044 3049 3055 3061 3066 3071 3075 3079 3082 3085 3088 3091 3093 3095 3097 3101 3103 3105 3108 3109 3110 3112 3114 3115 3117 3118 3119 3121 3126 3130 3134 3139 3142 3144 3145 3147 3149 3151 3152 3154 3156 3156 3157 3158 3158 3160 3162 3163 3164 3166 3167 3168 3170 3171 3172 3173 3174 3174 3175 3177 3178 3179 3180 3180 3181 3182 3182 3183 3184 3185 3186 3187 3189
2969 2975 2979 2984 2989 2993 2998 3003 3007 3011 3015 3020 3024 3030 3036 3042 3048 3054 3059 3064 3069 3074 3078 3080 3084 3088 3090 3091 3092 3095 3098 3102 3104 3106 3108 3110 3112 3114 3115 3117 3118 3119 3121 3126 3131 3134 3138 3141 3142 3144 3146 3147 3149 3151 3152 3152 3152 3154 3156 3158 3159 3161 3162 3162 3163 3165 3166 3168 3169 3170 3171 3172 3173 3173 3175 3176 3177 3178 3179 3180 3180 3181 3182 3183 3184 3184 3186 3187
2967 2972 2976 2981 2986 2990 2995 3000 3004 3008 3012 3017 3022 3028 3035 3041 3047 3052 3057 3062 3068 3073 3077 3079 3082 3086 3086 3086 3088 3092 3098 3101 3103 3106 3107 3109 3112 3114 3116 3117 3118 3120 3122 3126 3130 3134 3137 3140 3141 3143 3144 3145 3147 3148 3148 3149 3150 3153 3155 3157 3158 3160 3160 3161 3162 3163 3165 3166 3167 3168 3169 3171 3172 3172 3173 3175 3176 3177 3178 3179 3179 3180 3180 3181 3182 3183 3184 3185
2964 2969 2974 2979 2983 2988 2992 2996 3000 3004 3009 3014 3020 3027 3034 3040 3046 3051 3055 3060 3063 3066 3068 3069 3073 3076 3077 3080 3085 3091 3097 3101 3103 3105 3107 3109 3111 3114 3117 3118 3118 3121 3123 3125 3129 3132 3136 3138 3138 3139 3140 3142 3144 3145 3147 3150 3153 3154 3155 3156 3157 3158 3159 3160 3161 3162 3164 3164 3165 3166 3167 3169 3170 3171 3171 3173 3174 3175 3176 3177 3177 3178 3179 3180 3181 3182 3183 3184
2961 2966 2971 2976 2981 2986 2990 2994 2998 3002 3007 3012 3017 3023 3028 3033 3040 3046 3052 3057 3060 3062 3062 3063 3068 3072 3075 3079 3084 3090 3097 3100 3102 3104 3106 3109 3111 3113 3116 3118 3119 3121 3123 3125 3128 3131 3135 3135 3134 3135 3137 3140 3143 3146 3149 3151 3153 3154 3154 3155 3156 3157 3158 3158 3159 3161 3162 3163 3163 3165 3166 3167 3168 3169 3170 3170 3171 3172 3173 3175 3176 3177 3178 3178 3179 3180 3182 3183
2959 2964 2969 2974 2979 2983 2988 2992 2997 3002 3007 3012 3017 3021 3023 3026 3030 3033 3040 3049 3057 3062 3063 3066 3072 3074 3076 3080 3084 3090 3095 3098 3101 3104 3106 3108 3110 3113 3115 3116 3119 3120 3122 3126 3128 3131 3133 3132 3132 3135 3139 3142 3144 3146 3149 3151 3152 3153 3153 3153 3155 3156 3157 3157 3158 3159 3161 3161 3163 3164 3164 3164 3166 3167 3168 3168 3168 3169 3172 3173 3174 3175 3176 3177 3178 3179 3180 3181
2957 2962 2967 2972 2976 2981 2987 2992 2997 3002 3007 3012 3017 3021 3025 3029 3031 3032 3036 3043 3051 3057 3059 3065 3071 3073 3075 3080 3084 3089 3093 3095 3098 3101 3104 3106 3109 3111 3113 3115 3118 3119 3122 3126 3127 3129 3130 3128 3131 3136 3140 3142 3144 3146 3148 3149 3150 3151 3151 3152 3153 3154 3155 3155 3157 3158 3159 3160 3161 3162 3162 3162 3163 3164 3166 3166 3165 3167 3169 3171 3172 3173 3174 3175 3176 3177 3178 3179
2955 2960 2965 2969 2975 2980 2986 2991 2997 3002 3006 3010 3016 3020 3026 3031 3034 3039 3043 3045 3049 3054 3058 3062 3067 3070 3074 3079 3083 3087 3090 3093 3095 3098 3102 3105 3107 3110 3112 3114 3117 3120 3122 3124 3125 3126 3126 3128 3132 3136 3139 3141 3143 3144 3146 3147 3148 3149 3149 3151 3152 3152 3153 3154 3155 3157 3158 3159 3159 3159 3159 3159 3160 3161 3162 3164 3164 3164 3166 3168 3170 3171 3172 3173 3174 3175 3176 3176
2953 2958 2962 2968 2974 2979 2985 2991 2996 3000 3005 3010 3015 3019 3025 3030 3033 3040 3044 3047 3051 3055 3058 3062 3066 3070 3074 3079 3084 3087 3089 3092 3095 3097 3100 3103 3105 3109 3111 3113 3117 3119 3121 3123 3125 3125 3126 3129 3132 3135 3137 3140 3141 3143 3144 3146 3147 3147 3148 3150 3150 3151 3152 3153 3154 3155 3156 3157 3157 3158 3157 3155 3156 3158 3158 3161 3162 3162 3164 3165 3167 3168 3170 3171 3171 3173 3174 3175
2951 2956 2961 2966 2973 2978 2985 2990 2993 2998 3004 3009 3013 3018 3023 3028 3032 3038 3042 3047 3053 3056 3058 3063 3068 3072 3076 3080 3084 3086 3088 3091 3094 3097 3099 3102 3104 3107 3110 3113 3115 3117 3119 3122 3124 3126 3127 3130 3132 3134 3136 3138 3140 3141 3142 3144 3145 3147 3147 3148 3150 3150 3151 3152 3153 3154 3154 3154 3155 3157 3157 3152 3153 3155 3156 3158 3159 3160 3161 3162 3164 3166 3167 3168 3169 3170 3172 3173
2950 2955 2960 2965 2971 2977 2982 2986 2991 2997 3002 3007 3012 3017 3022 3027 3032 3038 3042 3048 3053 3054 3057 3062 3066 3070 3074 3079 3081 3084 3088 3089 3092 3096 3098 3101 3103 3106 3109 3111 3113 3116 3119 3122 3124 3125 3127 3129 3130 3132 3134 3136 3138 3139 3141 3143 3145 3146 3146 3147 3149 3148 3149 3151 3152 3153 3153 3152 3153 3155 3155 3152 3151 3153 3153 3154 3156 3157 3158 3160 3161 3163 3165 3166 3167 3168 3169 3170
2949 2954 2959 2964 2969 2974 2977 2982 2988 2994 2999 3005 3011 3016 3021 3026 3032 3037 3043 3051 3053 3052 3056 3060 3064 3068 3072 3076 3079 3081 3083 3085 3089 3094 3096 3099 3102 3104 3107 3108 3111 3114 3117 3120 3122 3122 3124 3127 3129 3131 3133 3135 3136 3137 3139 3142 3143 3144 3145 3146 3147 3147 3149 3150 3150 3151 3151 3151 3152 3152 3153 3152 3150 3150 3151 3152 3153 3154 3155 3157 3159 3160 3161 3163 3164 3165 3166 3168
2949 2954 2958 2963 2969 2974 2978 2983 2987 2991 2998 3004 3009 3015 3020 3026 3033 3036 3042 3049 3050 3048 3052 3057 3061 3066 3070 3074 3077 3078 3079 3082 3087 3090 3093 3098 3100 3102 3105 3107 3110 3113 3115 3117 3118 3119 3122 3125 3128 3130 3132 3133 3134 3136 3138 3140 3142 3143 3144 3145 3146 3146 3148 3149 3150 3150 3150 3150 3150 3150 3152 3152 3147 3147 3150 3151 3151 3152 3153 3155 3156 3157 3158 3160 3161 3163 3164 3165
2948 2953 2957 2963 2969 2974 2980 2984 2988 2994 3000 3004 3009 3016 3021 3027 3033 3037 3041 3045 3044 3045 3049 3054 3059 3063 3067 3072 3074 3076 3078 3081 3084 3086 3091 3096 3098 3100 3103 3105 3109 3112 3114 3116 3117 3119 3121 3124 3127 3129 3130 3131 3133 3135 3137 3138 3139 3141 3143 3144 3145 3146 3146 3148 3149 3149 3149 3149 3147 3148 3150 3150 3146 3144 3147 3148 3148 3149 3151 3152 3154 3154 3156 3156 3158 3160 3161 3162
2947 2951 2956 2961 2966 2971 2977 2983 2990 2996 3001 3005 3012 3017 3023 3028 3032 3036 3039 3039 3039 3043 3047 3052 3056 3059 3063 3067 3070 3073 3076 3079 3082 3085 3090 3093 3096 3099 3101 3104 3108 3111 3112 3114 3117 3118 3120 3123 3125 3127 3128 3130 3132 3133 3135 3137 3138 3140 3142 3142 3144 3145 3145 3147 3147 3147 3149 3146 3145 3146 3148 3149 3146 3142 3143 3145 3145 3147 3149 3149 3150 3152 3153 3154 3155 3156 3158 3159
2946 2951 2956 2960 2964 2969 2975 2981 2988 2995 2999 3005 3013 3018 3023 3028 3031 3034 3035 3034 3036 3041 3043 3048 3053 3056 3059 3062 3065 3070 3074 3077 3080 3083 3086 3089 3093 3096 3098 3100 3104 3107 3110 3111 3113 3115 3118 3121 3122 3124 3126 3128 3130 3131 3133 3135 3136 3137 3139 3141 3142 3144 3145 3146 3146 3147 3147 3144 3143 3144 3146 3147 3144 3140 3141 3143 3143 3145 3146 3146 3147 3149 3150 3151 3152 3153 3155 3156
2946 2950 2955 2960 2965 2970 2976 2982 2988 2993 2999 3005 3011 3016 3021 3027 3030 3030 3030 3031 3034 3036 3038 3042 3048 3052 3056 3061 3065 3068 3071 3074 3078 3081 3083 3085 3089 3091 3093 3095 3097 3101 3104 3107 3110 3113 3116 3118 3119 3121 3123 3125 3127 3129 3131 3132 3133 3135 3137 3138 3141 3142 3144 3145 3145 3145 3144 3142 3142 3143 3144 3144 3140 3138 3140 3141 3142 3143 3143 3143 3145 3146 3148 3149 3150 3151 3152 3153
2945 2950 2954 2959 2964 2969 2977 2983 2988 2993 2999 3005 3010 3015 3019 3023 3023 3023 3024 3027 3028 3030 3035 3039 3044 3050 3055 3060 3064 3066 3070 3073 3076 3079 3082 3084 3087 3089 3092 3094 3096 3099 3101 3104 3108 3111 3114 3115 3116 3118 3120 3122 3124 3126 3128 3129 3130 3133 3134 3135 3137 3140 3143 3144 3143 3142 3142 3141 3141 3142 3143 3141 3136 3136 3138 3139 3140 3142 3142 3142 3143 3144 3145 3146 3147 3148 3149 3150
2945 2950 2954 2958 2963 2970 2977 2983 2988 2993 2998 3004 3009 3014 3019 3019 3016 3018 3021 3023 3025 3029 3033 3038 3043 3050 3055 3058 3062 3064 3068 3072 3075 3077 3080 3083 3084 3086 3088 3091 3094 3097 3100 3103 3106 3108 3110 3111 3112 3115 3118 3120 3122 3124 3126 3127 3129 3131 3132 3134 3135 3136 3138 3139 3139 3139 3139 3139 3140 3142 3141 3137 3134 3134 3134 3136 3138 3139 3140 3141 3141 3142 3143 3144 3145 3145 3146 3148
2944 2949 2954 2959 2965 2972 2977 2981 2987 2993 2997 3001 3007 3011 3012 3011 3011 3014 3017 3020 3023 3027 3031 3037 3042 3048 3054 3058 3061 3063 3066 3069 3073 3076 3078 3078 3079 3080 3083 3086 3090 3094 3096 3098 3101 3104 3107 3109 3110 3113 3116 3118 3121 3122 3124 3126 3128 3129 3131 3132 3132 3133 3134 3135 3135 3135 3135 3137 3138 3138 3135 3132 3131 3132 3133 3134 3135 3135 3137 3138 3139 3140 3141 3142 3142 3143 3144 3145
2942 2948 2954 2961 2967 2972 2976 2980 2986 2992 2996 2999 3004 3006 3004 3003 3006 3011 3014 3017 3021 3023 3029 3037 3041 3045 3051 3056 3059 3061 3064 3066 3070 3073 3074 3076 3077 3078 3081 3083 3086 3089 3091 3094 3097 3101 3105 3107 3108 3111 3113 3116 3118 3120 3122 3124 3125 3127 3128 3129 3130 3132 3133 3133 3133 3133 3134 3135 3134 3133 3131 3130 3131 3131 3131 3133 3133 3134 3135 3136 3137 3138 3139 3140 3141 3141 3142 3143
2940 2945 2953 2960 2966 2970 2974 2980 2985 2990 2995 2998 2998 2997 2998 3002 3007 3010 3013 3017 3021 3023 3026 3032 3037 3041 3045 3050 3053 3056 3061 3065 3068 3069 3070 3073 3074 3075 3078 3081 3084 3087 3089 3092 3095 3098 3102 3105 3107 3109 3111 3113 3116 3118 3119 3121 3122 3124 3125 3127 3129 3131 3132 3132 3133 3133 3133 3133 3131 3129 3128 3129 3129 3129 3129 3131 3132 3132 3134 3135 3135 3135 3136 3138 3139 3140 3141 3141
2938 2945 2951 2957 2963 2967 2972 2979 2984 2987 2993 2995 2994 2994 2998 3004 3008 3010 3013 3015 3018 3022 3025 3028 3033 3038 3041 3044 3049 3053 3057 3061 3064 3065 3067 3070 3070 3071 3075 3078 3081 3085 3088 3091 3094 3096 3099 3102 3105 3107 3109 3111 3114 3116 3117 3118 3120 3121 3122 3125 3127 3129 3129 3130 3131 3131 3132 3131 3129 3127 3127 3127 3127 3127 3127 3129 3129 3130 3132 3133 3133 3133 3134 3136 3137 3138 3139 3140
2938 2943 2949 2955 2961 2965 2971 2977 2982 2987 2990 2989 2989 2992 2998 3002 3006 3008 3011 3013 3017 3020 3024 3027 3030 3036 3040 3041 3045 3050 3054 3057 3060 3063 3065 3067 3068 3070 3073 3076 3079 3082 3086 3089 3091 3094 3097 3099 3102 3104 3106 3109 3111 3112 3113 3115 3116 3119 3121 3123 3124 3125 3126 3126 3127 3128 3128 3129 3127 3126 3126 3124 3123 3125 3126 3127 3128 3129 3130 3130 3131 3132 3133 3134 3136 3137 3137 3138
2937 2942 2947 2953 2958 2963 2970 2976 2981 2984 2984 2981 2984 2990 2995 2999 3003 3006 3009 3013 3017 3020 3023 3025 3027 3031 3036 3040 3043 3046 3050 3054 3057 3059 3062 3064 3066 3068 3071 3074 3076 3080 3084 3088 3090 3092 3094 3097 3099 3101 3104 3106 3107 3108 3110 3112 3114 3116 3118 3119 3121 3122 3124 3125 3125 3125 3126 3126 3126 3125 3125 3122 3121 3123 3124 3125 3126 3128 3128 3129 3130 3131 3132 3133 3134 3135 3136 3137
2935 2940 2945 2952 2957 2961 2967 2972 2976 2978 2977 2979 2985 2990 2994 2997 3001 3004 3007 3012 3015 3019 3022 3024 3026 3029 3032 3037 3041 3043 3047 3051 3054 3056 3059 3060 3063 3065 3068 3071 3074 3077 3081 3085 3087 3090 3092 3094 3096 3098 3100 3102 3104 3106 3108 3110 3112 3113 3114 3115 3117 3119 3121 3123 3123 3123 3124 3124 3123 3123 3122 3120 3119 3120 3122 3123 3124 3125 3127 3127 3128 3129 3130 3131 3133 3133 3134 3135
2934 2938 2943 2949 2955 2959 2963 2967 2970 2973 2974 2979 2985 2989 2991 2996 3000 3003 3006 3010 3014 3019 3022 3024 3026 3029 3031 3034 3037 3040 3044 3048 3050 3053 3055 3056 3059 3063 3066 3069 3072 3075 3078 3082 3085 3087 3090 3093 3094 3096 3098 3100 3102 3104 3106 3108 3110 3111 3113 3114 3115 3117 3119 3120 3120 3120 3121 3121 3121 3122 3122 3119 3119 3120 3121 3122 3123 3124 3125 3126 3127 3128 3128 3130 3131 3132 3133 3134
2932 2937 2944 2949 2954 2958 2961 2964 2968 2971 2973 2977 2983 2986 2989 2994 2998 3001 3005 3009 3013 3017 3020 3023 3025 3028 3030 3033 3035 3038 3041 3045 3047 3049 3052 3055 3058 3062 3066 3068 3071 3074 3076 3079 3082 3085 3088 3090 3092 3095 3098 3099 3100 3102 3104 3106 3107 3109 3110 3111 3113 3114 3115 3117 3118 3118 3119 3118 3120 3122 3120 3118 3118 3119 3120 3121 3123 3124 3125 3125 3126 3126 3127 3128 3129 3130 3131 3132
2929 2936 2942 2948 2954 2958 2959 2959 2960 2963 2969 2976 2981 2983 2987 2992 2995 2999 3002 3007 3011 3014 3017 3020 3022 3025 3028 3031 3033 3035 3039 3043 3045 3048 3051 3054 3057 3060 3063 3066 3069 3071 3073 3076 3079 3082 3085 3087 3088 3092 3096 3098 3100 3101 3101 3102 3103 3104 3105 3107 3109 3110 3112 3115 3116 3117 3117 3116 3117 3119 3116 3114 3116 3118 3118 3119 3121 3122 3123 3124 3125 3125 3126 3126 3127 3127 3129 3130
2925 2933 2940 2946 2951 2955 2956 2957 2958 2961 2967 2973 2977 2980 2984 2989 2993 2997 3001 3005 3009 3012 3015 3018 3020 3023 3027 3030 3032 3035 3038 3041 3043 3046 3049 3052 3055 3058 3061 3064 3067 3069 3072 3074 3077 3079 3082 3083 3084 3087 3090 3092 3093 3092 3092 3095 3097 3100 3101 3104 3105 3107 3109 3111 3113 3115 3114 3113 3114 3114 3112 3113 3115 3116 3116 3117 3118 3119 3121 3122 3123 3124 3124 3124 3125 3126 3127 3128
2920 2926 2934 2942 2949 2953 2953 2955 2958 2961 2965 2969 2973 2977 2981 2986 2990 2995 3000 3003 3006 3010 3013 3016 3018 3022 3025 3028 3031 3034 3036 3039 3041 3043 3046 3048 3052 3055 3059 3062 3064 3067 3070 3073 3075 3077 3079 3079 3080 3082 3083 3083 3085 3087 3090 3093 3096 3097 3099 3101 3102 3104 3106 3108 3110 3110 3110 3111 3111 3110 3110 3111 3111 3112 3113 3114 3116 3117 3119 3120 3121 3122 3122 3123 3123 3124 3125 3126
2918 2919 2923 2931 2940 2947 2950 2953 2956 2959 2961 2965 2968 2972 2977 2983 2987 2992 2996 3000 3003 3007 3011 3014 3016 3019 3022 3025 3028 3031 3034 3036 3038 3040 3043 3046 3049 3053 3056 3059 3062 3064 3067 3070 3072 3074 3076 3076 3077 3078 3079 3081 3084 3087 3090 3092 3093 3094 3095 3097 3098 3100 3102 3104 3104 3104 3106 3108 3105 3105 3108 3107 3106 3109 3111 3112 3114 3115 3117 3119 3120 3120 3121 3122 3122 3122 3123 3124
2917 2918 2920 2923 2927 2932 2937 2942 2948 2953 2958 2963 2966 2970 2975 2979 2983 2986 2991 2995 3000 3004 3007 3010 3013 3015 3018 3021 3024 3028 3031 3033 3036 3038 3041 3043 3046 3050 3053 3056 3059 3061 3064 3067 3069 3071 3072 3072 3074 3076 3078 3080 3083 3085 3087 3088 3089 3090 3092 3093 3094 3096 3097 3098 3099 3100 3102 3102 3100 3102 3104 3102 3103 3107 3109 3110 3112 3114 3115 3117 3118 3119 3120 3120 3120 3121 3121 3122
2916 2918 2921 2924 2926 2928 2931 2937 2944 2951 2957 2961 2966 2969 2972 2975 2978 2982 2986 2991 2996 3000 3003 3006 3008 3012 3016 3019 3022 3024 3026 3028 3030 3033 3036 3039 3043 3046 3049 3052 3055 3058 3061 3063 3066 3068 3070 3070 3073 3075 3076 3078 3081 3082 3084 3085 3086 3087 3088 3089 3091 3093 3094 3095 3096 3097 3099 3098 3097 3099 3100 3099 3101 3105 3107 3108 3110 3111 3112 3114 3115 3116 3117 3118 3118 3118 3119 3119
2915 2917 2919 2923 2926 2929 2934 2939 2945 2951 2956 2960 2964 2966 2969 2972 2975 2980 2983 2986 2990 2994 2998 3001 3005 3009 3013 3017 3020 3021 3023 3025 3027 3029 3033 3036 3040 3043 3046 3049 3052 3055 3058 3060 3062 3065 3068 3069 3071 3074 3075 3076 3077 3079 3081 3082 3083 3083 3084 3086 3088 3090 3091 3092 3092 3093 3094 3094 3095 3097 3097 3096 3098 3102 3104 3105 3106 3107 3109 3111 3112 3114 3114 3115 3116 3116 3117 3117
2914 2916 2919 2922 2925 2928 2933 2938 2944 2949 2953 2956 2958 2961 2965 2968 2972 2977 2981 2984 2987 2991 2994 2998 3003 3008 3012 3015 3017 3019 3022 3026 3028 3031 3034 3036 3039 3042 3045 3047 3050 3053 3055 3058 3060 3062 3065 3067 3070 3072 3073 3073 3074 3076 3077 3079 3080 3080 3081 3082 3084 3084 3085 3085 3086 3088 3090 3091 3093 3094 3092 3091 3094 3099 3101 3101 3102 3104 3105 3107 3109 3111 3112 3113 3113 3114 3115 3115
2913 2916 2918 2921 2924 2927 2931 2936 2942 2946 2947 2948 2952 2957 2961 2965 2971 2976 2980 2983 2987 2990 2994 2998 3002 3006 3010 3012 3015 3018 3021 3024 3027 3030 3034 3037 3039 3042 3044 3047 3049 3051 3054 3056 3058 3059 3061 3064 3068 3071 3071 3070 3072 3074 3074 3077 3078 3075 3074 3076 3078 3078 3080 3081 3083 3085 3087 3088 3089 3088 3086 3088 3093 3096 3097 3097 3098 3100 3101 3103 3106 3107 3109 3110 3110 3111 3112 3113